Location: York
(31.8935°S, 116.7682°E)
Time: 23:26:21
(UTC+08:00)

Envisat - Pass Details

Date: 19 May 2021
Orbit: 764 x 766 km, 98.1° (Epoch: 14 June)

Event Time Altitude Azimuth Distance (km) Brightness Sun altitude
Rises 05:35:32 0° 352° (N) 3,215 6.3 -17.2°
Reaches altitude 10° 05:38:00 10° 342° (NNW) 2,298 5.4 -16.7°
Maximum altitude 05:42:35 34° 278° (W) 1,247 3.6 -15.8°
Enters shadow 05:45:53 17° 222° (SW) 1,872 4.5 -15.1°
